{"data":{"norad_id":47676,"epoch":"2026-08-06T01:51:21.333600Z","epoch_age_seconds":3950286,"freshness":"OLD","line1":"1 47676U 21012BJ  26218.07733025  .07902359  12399-4  64417-3 0  9990","line2":"2 47676  53.0182 254.2294 0005141 317.0246  43.0398 16.39047605305650","mean_motion":16.39047605,"eccentricity":0.0005141,"inclination_deg":53.0182,"raan_deg":254.2294,"arg_perigee_deg":317.0246,"mean_anomaly_deg":43.0398,"bstar":0.00064417,"rev_number":30565,"period_min":87.855898486853,"perigee_km":164.97169266254,"apogee_km":171.70277747103,"semimajor_km":6546.4742350668,"source":"CELESTRAK","updated_at":"2026-08-06T09:00:49.058133Z"}}